When you browse on this site, cookies collect data to enhance your experience and personalize the content and advertising you see.
Visit our Privacy Policy to learn more. By continuing to use the site, you agree to this use of cookies and data.
  • In Romania
  • List of Countries
  • For 7 days
  • Water Temperature
  • Satellite Maps
  • Weather Map
  • Weather Widgets
  • user-avatar
    Login

    Hourly Weather Bihać

    Today, 23 March, Saturday

    Time Temperature Precipitation Wind Pressure Humidity
    00:00 +4°C° 0 mm 3 mps 716 mmHg 72%
    01:00 +4°C° 0 mm 3 mps 716 mmHg 73%
    02:00 +3°C° 0 mm 3 mps 716 mmHg 74%
    03:00 +3°C° 0 mm 3 mps 715 mmHg 74%
    04:00 +3°C° 0 mm 3 mps 715 mmHg 75%
    05:00 +3°C° 0 mm 3 mps 715 mmHg 74%
    06:00 +3°C° 0 mm 3 mps 715 mmHg 74%
    07:00 +3°C° 0 mm 3 mps 715 mmHg 73%
    08:00 +7°C° 0 mm 3 mps 715 mmHg 67%
    09:00 +9°C° 0 mm 3 mps 716 mmHg 61%
    10:00 +11°C° 0 mm 3 mps 716 mmHg 55%
    11:00 +13°C° 0 mm 3 mps 716 mmHg 53%
    12:00 +14°C° 0 mm 3 mps 716 mmHg 50%
    13:00 +16°C° 0 mm 3 mps 716 mmHg 48%
    14:00 +16°C° 0 mm 3 mps 716 mmHg 49%
    15:00 +16°C° 0 mm 3 mps 716 mmHg 50%
    16:00 +16°C° 0 mm 3 mps 715 mmHg 51%
    17:00 +13°C° 0 mm 3 mps 715 mmHg 59%
    18:00 +12°C° 0 mm 2 mps 715 mmHg 66%
    19:00 +9°C° 0 mm 2 mps 715 mmHg 74%
    20:00 +8°C° 0 mm 2 mps 715 mmHg 76%
    21:00 +8°C° 0 mm 2 mps 715 mmHg 77%
    22:00 +7°C° 0 mm 2 mps 715 mmHg 79%
    23:00 +7°C° 0 mm 2 mps 715 mmHg 80%

    Tomorrow, 24 March, Sunday

    Time Temperature Precipitation Wind Pressure Humidity
    00:00 +7°C° 0 mm 2 mps 715 mmHg 82%
    01:00 +6°C° 0 mm 2 mps 715 mmHg 83%
    02:00 +6°C° 0 mm 2 mps 715 mmHg 85%
    03:00 +6°C° 0 mm 2 mps 714 mmHg 86%
    04:00 +6°C° 0 mm 2 mps 714 mmHg 87%
    05:00 +6°C° 0 mm 2 mps 714 mmHg 86%
    06:00 +6°C° 0 mm 2 mps 714 mmHg 85%
    07:00 +6°C° 0 mm 2 mps 714 mmHg 83%
    08:00 +9°C° 0 mm 2 mps 714 mmHg 73%
    09:00 +12°C° 0 mm 1 mps 715 mmHg 62%
    10:00 +15°C° 0 mm 1 mps 715 mmHg 51%
    11:00 +16°C° 0 mm 1 mps 715 mmHg 47%
    12:00 +18°C° 0 mm 1 mps 715 mmHg 43%
    13:00 +20°C° 0 mm 1 mps 715 mmHg 39%
    14:00 +19°C° 0 mm 1 mps 714 mmHg 41%
    15:00 +19°C° 0 mm 1 mps 714 mmHg 43%
    16:00 +18°C° 0 mm 1 mps 713 mmHg 46%
    17:00 +15°C° 0 mm 1 mps 713 mmHg 54%
    18:00 +13°C° 0 mm 1 mps 712 mmHg 62%
    19:00 +10°C° 0 mm 0 mps 712 mmHg 70%
    20:00 +10°C° 0 mm 0 mps 712 mmHg 71%
    21:00 +9°C° 0 mm 0 mps 712 mmHg 71%
    22:00 +9°C° 0 mm 0 mps 712 mmHg 72%
    23:00 +9°C° 0 mm 0 mps 712 mmHg 73%

    Day after tomorrow, 25 March, Monday

    Time Temperature Precipitation Wind Pressure Humidity
    00:00 +8°C° 0 mm 0 mps 711 mmHg 73%
    01:00 +8°C° 0 mm 0 mps 711 mmHg 74%
    02:00 +8°C° 0 mm 0 mps 711 mmHg 74%
    03:00 +7°C° 0 mm 0 mps 710 mmHg 74%
    04:00 +7°C° 0 mm 0 mps 710 mmHg 74%
    05:00 +8°C° 0 mm 0 mps 710 mmHg 73%
    06:00 +8°C° 0 mm 0 mps 710 mmHg 72%
    07:00 +9°C° 0 mm 1 mps 710 mmHg 71%
    08:00 +12°C° 0 mm 1 mps 710 mmHg 64%
    09:00 +14°C° 0 mm 1 mps 711 mmHg 57%
    10:00 +16°C° 0 mm 1 mps 711 mmHg 50%
    11:00 +18°C° 0 mm 1 mps 710 mmHg 50%
    12:00 +18°C° 0 mm 1 mps 710 mmHg 49%
    13:00 +17°C° 0 mm 2 mps 710 mmHg 49%
    14:00 +17°C° 0.1 mm 2 mps 709 mmHg 51%
    15:00 +16°C° 0.1 mm 2 mps 709 mmHg 52%
    16:00 +16°C° 0.1 mm 2 mps 708 mmHg 54%
    17:00 +14°C° 0.1 mm 1 mps 708 mmHg 62%
    18:00 +12°C° 0.1 mm 1 mps 708 mmHg 69%
    19:00 +10°C° 0.1 mm 1 mps 707 mmHg 77%
    20:00 +9°C° 0.4 mm 3 mps 708 mmHg 80%
    21:00 +7°C° 0.4 mm 5 mps 709 mmHg 82%
    22:00 +6°C° 0.4 mm 7 mps 710 mmHg 85%
    23:00 +4°C° 0.9 mm 8 mps 710 mmHg 81%

    26 March, Tuesday

    Time Temperature Precipitation Wind Pressure Humidity
    00:00 +2°C° 0.9 mm 9 mps 711 mmHg 77%
    01:00 +1°C° 0.9 mm 10 mps 711 mmHg 73%
    02:00 0°C° 0.1 mm 10 mps 712 mmHg 71%
    03:00 0°C° 0.1 mm 9 mps 712 mmHg 70%
    04:00 0°C° 0.1 mm 9 mps 712 mmHg 69%
    05:00 0°C° 0 mm 9 mps 713 mmHg 68%
    06:00 0°C° 0 mm 8 mps 714 mmHg 68%
    07:00 0°C° 0 mm 8 mps 714 mmHg 68%
    08:00 0°C° 0 mm 8 mps 714 mmHg 66%
    09:00 +1°C° 0 mm 9 mps 715 mmHg 65%
    10:00 +2°C° 0 mm 9 mps 715 mmHg 63%
    11:00 +2°C° 0 mm 9 mps 715 mmHg 60%
    12:00 +3°C° 0 mm 9 mps 715 mmHg 57%
    13:00 +3°C° 0 mm 9 mps 715 mmHg 55%
    14:00 +3°C° 0 mm 9 mps 715 mmHg 54%
    15:00 +3°C° 0 mm 9 mps 715 mmHg 54%
    16:00 +2°C° 0 mm 9 mps 715 mmHg 54%
    17:00 +2°C° 0 mm 8 mps 715 mmHg 58%
    18:00 +2°C° 0 mm 7 mps 715 mmHg 62%
    19:00 +1°C° 0 mm 5 mps 716 mmHg 66%
    20:00 0°C° 0 mm 5 mps 716 mmHg 66%
    21:00 0°C° 0 mm 5 mps 717 mmHg 67%
    22:00 0°C° 0 mm 4 mps 717 mmHg 68%
    23:00 -1°C° 0 mm 4 mps 717 mmHg 70%

    27 March, Wednesday

    Time Temperature Precipitation Wind Pressure Humidity
    00:00 -1°C° 0 mm 4 mps 717 mmHg 71%
    01:00 -1°C° 0 mm 4 mps 717 mmHg 73%
    02:00 0°C° 0 mm 3 mps 717 mmHg 74%
    03:00 0°C° 0 mm 3 mps 717 mmHg 74%
    04:00 0°C° 0 mm 3 mps 717 mmHg 75%
    05:00 0°C° 0 mm 3 mps 717 mmHg 73%
    06:00 0°C° 0 mm 3 mps 717 mmHg 71%
    07:00 +1°C° 0 mm 3 mps 718 mmHg 69%
    08:00 +3°C° 0 mm 4 mps 718 mmHg 61%
    09:00 +3°C° 0 mm 5 mps 718 mmHg 54%
    10:00 +6°C° 0 mm 5 mps 719 mmHg 47%
    11:00 +6°C° 0 mm 5 mps 718 mmHg 48%
    12:00 +7°C° 0 mm 5 mps 718 mmHg 48%
    13:00 +7°C° 0 mm 5 mps 718 mmHg 49%
    14:00 +7°C° 0 mm 5 mps 718 mmHg 51%
    15:00 +7°C° 0 mm 5 mps 717 mmHg 52%
    16:00 +7°C° 0 mm 5 mps 717 mmHg 54%
    17:00 +5°C° 0 mm 4 mps 717 mmHg 61%
    18:00 +4°C° 0 mm 3 mps 717 mmHg 68%
    19:00 +4°C° 0 mm 2 mps 717 mmHg 74%
    20:00 +3°C° 0 mm 2 mps 717 mmHg 77%
    21:00 +3°C° 0 mm 2 mps 717 mmHg 79%
    22:00 +3°C° 0 mm 2 mps 717 mmHg 81%
    23:00 +2°C° 0 mm 2 mps 717 mmHg 82%

    28 March, Thursday

    Time Temperature Precipitation Wind Pressure Humidity
    00:00 +2°C° 0 mm 2 mps 717 mmHg 83%
    01:00 +2°C° 0 mm 2 mps 717 mmHg 85%
    02:00 +2°C° 0 mm 2 mps 717 mmHg 85%
    03:00 +2°C° 0 mm 2 mps 717 mmHg 85%
    04:00 +2°C° 0 mm 2 mps 717 mmHg 85%
    05:00 +2°C° 0 mm 2 mps 717 mmHg 84%
    06:00 +2°C° 0 mm 2 mps 717 mmHg 82%
    07:00 +3°C° 0 mm 2 mps 718 mmHg 80%
    08:00 +4°C° 0 mm 3 mps 718 mmHg 73%
    09:00 +5°C° 0 mm 3 mps 718 mmHg 66%
    10:00 +8°C° 0 mm 3 mps 718 mmHg 59%
    11:00 +8°C° 0 mm 4 mps 718 mmHg 58%
    12:00 +8°C° 0 mm 4 mps 718 mmHg 57%
    13:00 +10°C° 0 mm 4 mps 718 mmHg 56%
    14:00 +8°C° 0 mm 4 mps 718 mmHg 58%
    15:00 +8°C° 0 mm 4 mps 718 mmHg 60%
    16:00 +8°C° 0 mm 4 mps 718 mmHg 61%
    17:00 +8°C° 0 mm 3 mps 718 mmHg 69%
    18:00 +5°C° 0 mm 3 mps 718 mmHg 77%
    19:00 +5°C° 0 mm 2 mps 718 mmHg 85%
    20:00 +5°C° 0 mm 2 mps 718 mmHg 87%
    21:00 +3°C° 0 mm 3 mps 718 mmHg 89%
    22:00 +3°C° 0 mm 3 mps 719 mmHg 91%
    23:00 +3°C° 0 mm 3 mps 719 mmHg 91%
    Show more